Location: Unspecified
(0.0000°N, 0.0000°E)
Time: 13:38:12
(UTC+00:00)

A-11 Canister half - Pass Details

Date: 23 November 2019
Orbit: 1526 x 1683 km, 47.3° (Epoch: 08 December)

Event Time Altitude Azimuth Distance (km) Brightness Sun altitude
Rises 06:44:46 0° 209° (SSW) 4,881 11.5 13.7°
Reaches altitude 10° 06:48:01 10° 204° (SSW) 3,909 11.2 14.5°
Maximum altitude 06:57:45 54° 130° (SE) 1,981 10.6 16.7°
Drops below altitude 10° 07:07:32 10° 55° (NE) 3,933 11.7 19.0°
Sets 07:10:47 0° 51° (NE) 4,913 12.1 19.8°
